Simultaneous Nadir Overpasses (SNOs) Predictions

Prediction of SNOs between NOAA-19 and METOP-C Satellite Orbit:

Table of predicted SNOs for the next 14.0 days since TLE Epoch: 3/16/2024
Index Date (NOAA-19) Time (NOAA-19) Lat,Lon (NOAA-19) SZA (NOAA-19 ) Date (METOP-C) Time (METOP-C) Lat,Lon (METOP-C) SZA (METOP-C ) Distance(km) Time Diff (sec)
1 03/23/2024 10:12:55 80.29, 51.55 79.73 03/23/2024 10:13:58 80.28, 51.52 79.74 0.60 63
2 03/23/2024 11:03:49 -80.29,-141.12 100.29 03/23/2024 11:04:40 -80.28,-141.18 100.28 1.27 51
3 03/23/2024 11:54:51 80.33, 26.81 79.80 03/23/2024 11:55:18 80.33, 26.67 79.79 2.75 27
4 03/23/2024 12:45:46 -80.32,-166.19 100.26 03/23/2024 12:46:00 -80.32,-166.03 100.24 3.16 14
5 03/23/2024 13:36:48 80.36, 1.74 79.82 03/23/2024 13:36:38 80.37, 1.83 79.83 1.67 10
6 03/23/2024 14:27:41 -80.38, 169.40 100.15 03/23/2024 14:27:19 -80.39, 169.45 100.15 1.03 22
7 03/23/2024 15:18:44 80.41, -22.98 79.89 03/23/2024 15:17:58 80.41, -23.01 79.87 0.51 46



Historial Predications of SNOs between NOAA-19 and METOP-C
